Total_Precipitation_Accumulation
3.41 3.37 3.38 3.48 3.26 3.29 3.58 3.89 3.69 3.71 3.80 3.57 3.18 3.03 3.20 3.24 3.33 3.40 3.52 3.68 3.60 3.75 4.41 4.62 4.26 3.87 3.71 3.32 3.10 2.82 2.61 2.45 2.23 1.95 1.81 1.84 1.92 1.98 1.91 1.82 1.85 1.81 1.70
3.58 3.54 3.33 3.46 3.32 3.26 3.42 3.69 3.68 4.14 4.11 4.01 3.52 3.24 3.27 3.33 3.37 3.44 3.46 3.83 3.75 3.56 3.97 4.40 4.55 4.42 4.22 3.92 3.70 3.37 3.09 2.85 2.58 2.14 1.86 1.80 1.89 1.98 1.99 2.05 2.02 1.96 1.90
3.57 3.55 3.49 3.36 3.37 3.40 3.63 3.72 3.75 4.13 4.09 4.01 3.84 3.52 3.35 3.10 3.02 3.19 3.20 3.42 3.37 3.30 3.56 3.97 4.34 4.51 4.59 4.48 4.38 4.16 3.65 3.24 2.86 2.42 2.07 1.85 1.77 1.86 1.91 1.97 1.99 1.95 1.93
3.45 3.71 3.54 3.27 3.38 3.36 3.56 3.96 4.08 4.30 4.45 4.39 4.08 3.69 3.45 3.32 3.10 3.11 2.96 2.93 3.22 2.84 3.13 3.61 3.95 4.20 4.74 5.05 5.16 5.15 4.57 3.79 3.14 2.79 2.48 2.19 1.94 1.84 1.83 1.93 2.00 1.93 1.85
3.21 3.56 3.51 3.44 3.46 3.68 3.72 3.49 4.12 4.46 4.62 4.55 3.78 3.60 3.21 3.13 3.01 2.78 2.86 2.74 2.97 3.04 3.09 3.05 3.22 3.53 4.47 5.43 5.82 5.97 5.75 4.79 3.87 3.40 3.07 2.77 2.45 2.12 1.89 1.89 1.94 1.88 1.74
3.09 3.48 3.30 3.31 3.43 3.82 4.00 4.09 4.54 4.54 4.38 4.51 3.74 3.39 2.94 2.58 2.56 2.61 2.43 2.46 2.59 2.52 2.80 3.24 3.59 3.30 3.79 4.48 4.99 5.45 5.83 5.61 4.88 4.10 3.69 3.37 3.10 2.72 2.32 2.10 2.02 1.99 1.85
3.24 3.79 3.43 3.75 3.66 3.76 3.86 4.00 4.31 4.32 4.07 4.30 4.36 3.72 2.81 2.26 2.24 2.13 2.13 2.28 2.21 2.21 2.58 3.24 3.53 3.60 3.39 3.21 3.43 4.05 4.93 5.42 5.28 4.62 4.21 3.92 3.76 3.36 2.91 2.62 2.38 2.23 2.07
3.35 3.45 3.73 3.62 3.68 3.86 3.65 3.72 4.10 4.00 3.55 3.91 4.37 4.45 3.54 2.89 2.31 1.76 1.94 2.03 2.17 2.34 2.29 2.39 2.87 3.46 3.45 3.50 3.08 2.91 3.70 4.70 5.21 5.19 4.79 4.37 4.08 3.73 3.37 3.09 2.78 2.46 2.18
3.39 3.50 3.47 3.43 3.58 3.53 3.56 3.57 3.73 3.89 3.77 3.70 4.07 4.50 3.92 3.23 2.56 1.99 1.88 1.85 2.14 2.44 2.39 2.40 2.64 3.09 3.31 3.63 3.66 3.37 3.07 3.46 4.45 5.52 5.66 4.98 4.14 3.52 3.26 3.26 3.22 2.93 2.66
3.62 3.42 3.26 3.24 3.24 3.12 3.29 3.08 3.39 3.65 3.86 3.55 3.65 3.62 3.48 3.44 3.32 2.61 2.08 1.96 2.15 2.34 2.44 2.37 2.50 2.86 3.13 3.48 3.76 3.45 2.82 2.62 3.18 4.43 5.26 5.25 4.62 3.74 3.32 3.50 3.88 3.80 3.40
3.57 3.20 3.21 3.23 3.22 3.05 2.95 2.92 3.23 3.21 3.33 3.37 3.43 3.40 3.45 3.41 3.24 3.00 2.58 2.34 2.20 1.92 1.93 2.07 2.32 2.64 2.88 3.11 3.48 3.35 3.05 2.93 2.86 3.07 3.59 4.03 4.29 4.07 3.72 3.77 4.28 4.61 4.44
3.14 2.89 2.92 3.01 2.92 2.90 2.94 2.89 2.96 2.98 3.08 3.17 3.20 3.17 3.32 3.27 3.25 3.31 2.93 2.65 2.41 2.03 1.85 1.91 2.09 2.35 2.55 2.62 2.66 2.88 2.92 2.90 2.70 2.51 2.52 2.66 3.02 3.48 3.77 4.08 4.57 5.05 5.29
2.44 2.39 2.53 2.67 2.57 2.62 2.65 2.85 2.78 2.69 2.86 3.05 3.06 3.03 3.07 3.03 3.07 3.25 3.17 2.65 2.45 2.22 2.18 1.97 1.85 2.16 2.30 2.48 2.71 2.68 2.49 2.55 2.33 2.20 2.15 2.19 2.39 2.67 2.96 3.32 3.92 4.53 5.00
2.11 2.19 2.32 2.37 2.33 2.36 2.30 2.68 2.51 2.46 2.61 2.69 2.60 2.98 2.92 2.61 2.79 2.98 3.14 3.16 2.91 2.67 2.65 2.29 1.99 2.04 2.16 2.38 2.58 2.48 2.17 2.15 1.96 1.84 1.84 1.87 1.88 2.07 2.34 2.61 2.90 3.27 3.66
2.12 2.20 2.16 2.26 2.30 2.34 2.40 2.54 2.42 2.37 2.61 2.57 2.48 2.76 2.69 2.49 2.60 2.72 3.00 3.26 3.48 3.21 2.93 2.68 2.33 2.09 2.12 2.31 2.56 2.28 2.25 2.20 1.96 1.90 1.82 1.70 1.61 1.65 1.83 2.07 2.25 2.45 2.76
2.25 2.27 2.23 2.36 2.31 2.28 2.31 2.38 2.16 2.17 2.43 2.49 2.55 2.76 2.68 2.55 2.68 2.74 2.95 3.27 3.65 3.69 3.13 2.53 2.35 2.17 2.34 2.33 2.53 2.21 2.11 2.19 1.97 1.79 1.69 1.65 1.61 1.60 1.64 1.81 2.01 2.19 2.34
2.29 2.23 2.18 2.26 2.28 2.24 2.30 2.37 2.11 2.24 2.36 2.40 2.41 2.57 2.62 2.77 2.87 2.86 2.98 3.16 3.49 3.78 3.37 2.69 2.53 2.50 2.66 2.61 2.48 2.20 1.96 1.88 1.71 1.70 1.56 1.49 1.48 1.54 1.61 1.68 1.84 2.02 2.09
2.21 2.28 2.29 2.27 2.20 2.23 2.46 2.52 2.29 2.36 2.46 2.42 2.44 2.60 2.47 2.71 2.93 2.88 2.99 2.99 3.15 3.54 3.40 3.03 2.92 2.84 2.83 2.68 2.64 2.45 2.08 1.88 1.82 1.84 1.61 1.49 1.47 1.46 1.52 1.57 1.69 1.87 2.01
2.24 2.35 2.43 2.46 2.49 2.55 2.59 2.65 2.69 2.60 2.49 2.41 2.47 2.48 2.45 2.69 2.71 2.86 2.98 2.93 2.93 3.08 3.34 3.18 3.05 3.13 3.03 2.88 2.86 2.64 2.40 2.35 1.98 1.90 1.81 1.71 1.69 1.67 1.65 1.66 1.69 1.78 1.91
2.33 2.46 2.49 2.62 2.84 2.94 2.94 2.92 2.76 2.65 2.58 2.53 2.48 2.43 2.38 2.44 2.51 2.66 2.74 2.86 2.95 3.08 3.23 3.22 3.21 3.31 3.25 3.26 3.34 3.07 2.86 2.75 2.37 1.96 2.02 1.90 1.83 1.73 1.62 1.57 1.59 1.69 1.83
2.19 2.51 2.69 2.80 3.09 3.24 3.02 3.05 2.97 2.83 2.85 2.65 2.52 2.43 2.28 2.29 2.39 2.46 2.35 2.54 2.75 2.87 2.89 2.98 3.06 3.29 3.31 3.41 3.38 3.24 3.09 3.07 2.84 2.31 2.17 2.04 1.98 1.85 1.80 1.78 1.71 1.70 1.74
2.15 2.35 2.51 2.65 2.72 2.51 2.66 2.67 2.64 2.72 2.79 2.66 2.56 2.52 2.37 2.23 2.18 2.11 2.00 2.06 2.23 2.38 2.54 2.82 2.95 3.11 3.27 3.44 3.67 3.69 3.52 3.31 3.08 2.76 2.68 2.51 2.26 2.17 1.98 1.81 1.83 1.70 1.57
2.18 2.27 2.32 2.37 2.34 2.39 2.41 2.14 2.07 2.06 2.24 2.37 2.43 2.44 2.15 1.96 2.07 1.94 1.97 1.96 1.98 2.13 2.27 2.56 2.73 2.79 3.05 3.29 3.63 3.70 3.73 3.64 3.40 3.21 3.10 2.90 2.58 2.35 2.09 1.97 1.99 1.72 1.55
2.30 2.31 2.39 2.41 2.44 2.36 2.28 2.02 1.98 1.89 2.00 2.12 2.21 2.24 2.20 2.13 2.15 2.23 2.13 1.97 1.85 1.96 2.12 2.06 2.07 2.24 2.54 3.01 3.26 3.30 3.49 3.52 3.35 3.14 3.10 2.99 2.67 2.45 2.20 2.12 2.12 1.83 1.66
2.43 2.41 2.53 2.60 2.57 2.45 2.36 2.13 2.10 1.96 2.03 2.05 2.07 2.08 2.08 2.02 2.18 2.13 2.01 1.94 1.93 1.98 1.95 1.93 1.87 1.90 2.06 2.34 2.75 2.95 3.04 3.01 2.83 2.56 2.49 2.53 2.40 2.40 2.32 2.18 2.00 1.89 1.69
2.88 2.91 2.80 2.66 2.55 2.46 2.48 2.15 2.04 1.87 1.91 1.98 2.10 2.04 1.97 1.88 1.93 1.89 1.84 1.94 1.91 1.93 2.03 1.95 1.78 1.68 1.63 1.83 2.25 2.44 2.56 2.66 2.50 2.36 2.08 2.10 2.05 2.19 2.22 1.98 1.82 1.80 1.75